Regional Weather Roundup
Issued by NWS Wakefield, VA

Home | Current Version | Previous Version | Text Only | Print | Product List | Glossary On
Versions: 1 2 3 4 5 6 7 8 9 10 11 12 13 14 15 16 17 18 19 20 21 22 23 24 25 26 27
000
ASUS41 KAKQ 241710
RWRAKQ

REGIONAL WEATHER ROUNDUP
NATIONAL WEATHER SERVICE WAKEFIELD VA
100 PM EDT FRI OCT 24 2014

Note: "fair" indicates few or no clouds below 12,000 feet with no
significant weather and/or obstructions to visibility. * = Denotes
station may not report precipitation (e.g., rain,snow,etc.),
thunder or fog.

VAZ042-051-052>054-056-241800-
NORTHERN VIRGINIA

CITY           SKY/WX    TMP DP  RH WIND       PRES   REMARKS
WASH NATIONAL  CLOUDY    65  41  41 NW16G26   29.95F
DULLES         PTSUNNY   62  40  44 NW21      29.96F
FORT BELVOIR   MOSUNNY   64  42  43 W16G22    29.95F
QUANTICO       PTSUNNY   66  39  37 NW13      29.96F
FREDERICKSBRG* PTSUNNY   65  42  43 W6        29.96F
STAFFORD*      PTSUNNY   63  38  39 NW12      30.00F
WARRENTON      MOSUNNY   66  48  51 NW7       29.96F
CULPEPER*      PTSUNNY   64  45  48 CALM      29.98F
MANASSAS*      MOSUNNY   64  43  45 NW10      29.97F
LEESBURG*      MOSUNNY   63  45  51 NW18      29.97F
WINCHESTER     MOSUNNY   63  34  34 W12G18    29.99F
FRONT ROYAL*   PTSUNNY   63  41  45 W5        29.98F
LURAY*         PTSUNNY   63  45  51 SW6       30.00F
$$

VAZ048-049-060>072-079>083-241800-
CENTRAL AND SOUTH CENTRAL VIRGINIA...AND NORTH CENTRAL NORTH CAROLINA

CITY           SKY/WX    TMP DP  RH WIND       PRES   REMARKS
RICHMOND       PTSUNNY   67  42  40 NW10      29.98F
CHESTERFIELD*    N/A    N/A N/A N/A MISG        N/A
PETERSBURG*    MOSUNNY   66  37  35 NW6       29.99F
HANOVER        CLOUDY    65  44  46 VRB5      29.99F
TAPPAHANNOCK*  CLOUDY    63  39  41 W6        29.97F
CHARLOTTSVILLE PTSUNNY   65  39  38 NW6       29.98F
ORANGE*        CLOUDY    61  45  55 CALM      29.99F
LOUISA*        CLOUDY    63  45  51 CALM      29.97F
FARMVILLE*     SUNNY     68  39  34 W6        29.97F
CREWE*         SUNNY     65  39  38 W3        30.00F
FORT PICKETT*  SUNNY     65  42  43 W7        29.99F
LUNENBURG*     SUNNY     66  42  42 NW6       29.99F
SOUTH HILL*    SUNNY     70  39  32 W3        30.05F
LAWRENCEVILLE* SUNNY     66  46  47 CALM      29.99F
ROANOKE RAPIDS SUNNY     63  45  51 W5        30.00F
RALEIGH        MOSUNNY   67  43  41 CALM      30.03F
$$

VAZ088>098-241800-
SOUTHEAST VIRGINIA

CITY           SKY/WX    TMP DP  RH WIND       PRES   REMARKS
NORFOLK        MOSUNNY   64  44  48 NW10G20   29.96F
VIRGINIA BEACH PTSUNNY   66  47  50 NW17G23   29.95F
NORFOLK NAVAL  PTSUNNY   67  47  48 NW12G17   29.97F
WEST POINT*    PTSUNNY   68  42  38 NW7       29.97F
NEWPORT NEWS   LGT RAIN  68  46  45 NW8       29.96F
LANGLEY AFB    MOSUNNY   64  47  53 NW13      29.95F
FORT EUSTIS    SUNNY     65  44  46 NW8       29.94F
WILLIAMSBURG*  MOSUNNY   72  50  46 N5        29.96F
HR EXEC AP*    MOSUNNY   64  46  52 NW6       29.98F
FRANKLIN*      SUNNY     66  46  48 W8        29.98F
WAKEFIELD      SUNNY     67  44  43 NW9       29.97F
$$

VAZ020-022-025-037-045-241800-
WEST CENTRAL AND SOUTHWEST VIRGINIA

CITY           SKY/WX    TMP DP  RH WIND       PRES   REMARKS
STAUNTON*      PTSUNNY   60  40  48 CALM      30.03F
HOT SPRINGS VA CLOUDY    50  40  67 W13       30.03F
LYNCHBURG      SUNNY     64  41  42 W6        30.02F
DANVILLE       SUNNY     67  41  38 SW5       30.02F
SOUTH BOSTON*  NOT AVBL
MARTINSVILLE   MOSUNNY   66  38  36 N3        30.06F
ROANOKE        PTSUNNY   62  43  49 W12       30.06F
BLACKSBURG     MOSUNNY   59  46  63 W6        30.09F
DUBLIN*        SUNNY     58  43  56 CALM      30.09F
MARION*        MOSUNNY   59  39  46 CALM      30.11F
HILLSVILLE*    SUNNY     54  40  59 N9        30.08F
RICHLANDS*     PTSUNNY   54  44  68 CALM      30.11F
WISE*          CLOUDY    54  41  62 N5        30.12F
ABINGDON*      CLOUDY    56  44  64 CALM      30.10F
$$

MDZ021>025-VAZ099-100-241800-
SOUTHERN MARYLAND AND THE DELMARVA PENINSULA

CITY           SKY/WX    TMP DP  RH WIND       PRES   REMARKS
PATUXENT RIVER MOSUNNY   66  44  45 NW17      29.92F
BAY BRIDGE APT   N/A     63  43  48 NW14      29.90F
LEONARDTOWN    MOSUNNY   64  43  45 NW6       29.94F
DOVER          SUNNY     65  47  51 NW16G28   29.84F
GEORGETOWN     MOSUNNY   65  44  46 N9G22     29.88F
EASTON         MOSUNNY   66  46  48 N12G25    29.94F
CAMBRIDGE      SUNNY     64  45  48 NW13G20   29.90F
SALISBURY      MOSUNNY   67  46  47 NW15      29.88F
OCEAN CITY     MOSUNNY   65  46  50 N15G22    29.87F
WALLOPS ISLAND SUNNY     65  48  54 N16G23    29.89F
ACCOMACK*      MOSUNNY   61  45  55 NW12G22   29.92F
$$

NCZ012>017-030>032-241800-
EASTERN NORTH CAROLINA

CITY           SKY/WX    TMP DP  RH WIND       PRES   REMARKS
ELIZABETH CITY MOSUNNY   66  46  48 NW13      29.97F
AHOSKIE*       SUNNY     65  42  43 N12       29.99F
EDENTON*       MOSUNNY   65  46  51 N12       29.99F
CURRITUCK*     MOSUNNY   65  44  47 NW6       29.97F
KILL DEVIL HLS MOSUNNY   63  48  57 N5        29.96F
MANTEO         MOSUNNY   61  48  62 W10       29.97F
CAPE HATTERAS  SUNNY     62  48  60 NW9       29.98F
TARBORO*       MOSUNNY   69  46  44 W5        30.01F
GOLDSBORO      MOSUNNY   67  51  57 W5        30.00F
WASHINGTON     MOSUNNY   64  47  53 N5        30.01F
GREENVILLE     MOSUNNY   68  43  40 N3        30.02F
NEW BERN       PTSUNNY   69  46  43 VRB6      30.01F
WILMINGTON     PTSUNNY   67  47  48 CALM      30.03F
$$

VAZ048-241800-
ELSEWHERE

CITY           SKY/WX    TMP DP  RH WIND       PRES   REMARKS
HARRISBURG PA  SUNNY     65  39  38 W12       29.90F
BALTIMORE      NOT AVBL
ANNAPOLIS      MOSUNNY   64  44  48 NW13      29.90F
ANDREWS AFB    MOSUNNY   64  42  44 NW15G23   29.93F
WILMINGTON DE  MOSUNNY   67  46  47 NW15G26   29.87F
PHILADELPHIA   MOSUNNY   66  43  43 NW20      29.84F
WILDWOOD NJ*   CLOUDY    63  46  55 NW12G20   29.86F
ATLANTIC CITY  PTSUNNY   64  46  52 NW22G28   29.82F
HENDERSON NC   SUNNY     66  42  41 CALM      30.02F
GREENSBORO     PTSUNNY   65  38  36 N7        30.03F
ROCKY MOUNT    MOSUNNY   68  46  45 CALM      30.01F
FAYETTEVILLE   MOSUNNY   66  43  43 CALM      30.03F
CHARLOTTE      PTSUNNY   66  40  38 SE5       30.05F
$$

VAZ100-241800-
MARINE

STATION/POSITION TIME  TEMP    WIND        PRES    WAVE   SWELL
                       AIR SEA DIR/SP/G            HT/PER HT/PER
                 (UTC) (F)     (DEG/KT/KT) (MB)    (FT/S) (FT/S)
44066 TX TWR #4  1700   56 66  320/ 19/ 23 1007.8F   7/ 6   3/ 9
CAPE MAY NJ      1700   62 63  320/  9/ 17 1010.4F
LEWES DE         1700   61 57  320/ 18/ 21 1011.0F
15NM E FENWICK I 1700   61 64  310/ 21/ 25 1010.6F   5/ 5   2/ 9
OCEAN-CITY-INLET 1700   63 63  340/ 16/ 21 1011.0F
WACHAPREAGUE VA  1700   63 59  310/  4/ 10 1013.0F
THOMAS POINT MD  1700   63 62  340/ 15/ 17 1013.4F
GOOSES REEF MD   1700   62     340/ 14/ 16 1013.8F
COVE POINT MD    1700   61     350/ 16/ 18 1013.0F
SOLOMONS ISLAND  1700      64                N/A
BISHOPS HEAD MD  1700   62 57  300/ 14/ 20 1012.5F
PINEY POINT MD   1700          300/ 17/ 18   N/A
POTOMAC MD       1700   61     300/ 16/ 19 1012.9F
CAMBRIDGE MD     1700   62 60  300/ 12/ 16 1012.5F
LEWISETTA VA     1700   60 59  310/ 12/ 15 1013.3F
RAPPAHANNOCK LGT 1700          320/ 19/ 21 1013.7F
STINGRAY PT      1700   61     310/ 16/ 17 1014.3F
YORK RVR RNG VA  1700   61     330/ 13/ 15 1013.8F
YORKTOWN VA      1700   60 64  310/ 16/ 17 1014.1F
JAMESTOWN VA     1700   61     340/ 10/ 12   N/A
DOMINION TERM VA 1700   61     310/ 15/ 18 1014.4F
KIPTOPEKE VA     1700      65  320/ 15/ 19   N/A
CHES BAY BRIDGE  1700   59 65  290/ 14/ 17 1013.9F
CHESAPEAKE LGHT  1600   59     320/ 20/ 22 1015.0R
WILLOUBY STN VA  1700   61     330/ 10/ 12 1013.3F
S CRANEY ISL VA  1700          280/  8/ 12 1014.4F
CAPE HENRY BUOY  1700      67                N/A     5/ 4
1ST LANDING BUOY 1700   61     320/ 16/ 19 1013.9F
CAPE CHARLES BUO 1700      66                N/A     3/ 5   2/ 7
64NM E OF VA BCH 1700   61 67  320/ 17/ 21 1012.7F   7/ 6
DUCK PIER NC     1700   61 66  340/ 13/ 15 1013.7F
44100 DUCK FRF   1700      68                N/A     5/ 6
44056 DUCK FRF   1700                        N/A     4/ 6
OREGON INLET NC  1700   61 63  320/ 12/ 15 1014.7F
HATTERAS NC      1700   60 63  320/ 14/ 17 1015.6S
DIAMOND SHLS NC  1700   62     320/ 14/ 17 1015.1F   4/ 9   2/ 9
CAPE LOOKOUT NC  1600   63     340/ 10/ 11 1016.7F
$$



USA.gov is the U.S. government's official web portal to all federal, state and local government web resources and services.